Location: Palomar Mountain Lodge
(33.3110°N, 116.8495°W)
Time: 10:32:09
(UTC-07:00)

NOSS 2-2 (D) - Pass Details

Date: 19 May 2017
Orbit: 538 x 1671 km, 63.3° (Epoch: 22 September)

Event Time Altitude Azimuth Distance (km) Brightness Sun altitude
Exits shadow 21:46:42 24° 219° (SW) 1,148 4.8 -22.0°
Maximum altitude 21:48:59 75° 301° (WNW) 574 3.4 -22.3°
Drops below altitude 10° 21:53:14 10° 27° (NNE) 1,954 6.3 -22.9°
Sets 21:55:40 0° 29° (NNE) 2,974 7.3 -23.3°
